Location: Newark
(42.7133°N, 87.7910°W)
Time: 06:59:31
(UTC+00:00)

Transit 4A - Pass Details

Date: 26 September 2019
Orbit: 867 x 978 km, 66.8° (Epoch: 18 October)

Event Time Altitude Azimuth Distance (km) Brightness Sun altitude
Rises 00:54:43 0° 329° (NNW) 3,589 11.6 -13.9°
Reaches altitude 10° 00:57:17 10° 330° (NNW) 2,625 10.9 -14.3°
Maximum altitude 01:03:23 84° 59° (ENE) 911 7.8 -15.4°
Enters shadow 01:08:33 14° 148° (SSE) 2,264 9.5 -16.3°
